Wind_Speed
33 30 27 22 19 16 15 14 14 15 13 13 11 9 8 8 8 8 9 8 9 10
36 33 29 24 19 16 16 16 16 16 13 12 12 11 10 10 10 10 10 10 10 11
39 34 28 23 19 15 18 17 17 15 13 13 14 13 13 11 11 11 12 12 12 12
42 37 30 27 18 16 15 14 15 14 14 16 15 15 14 12 13 13 12 10 10 11
44 40 31 24 21 17 12 13 15 17 18 18 17 16 15 13 14 13 12 10 13 14
48 42 38 38 34 18 6 10 18 20 21 21 19 17 15 14 14 15 14 12 14 15
48 46 41 41 38 32 22 33 31 25 26 25 20 20 19 17 15 16 16 14 17 17
46 45 45 47 50 48 28 23 37 32 28 26 24 23 22 18 17 16 16 16 17 19
41 41 46 52 56 50 43 32 30 40 31 29 28 27 23 21 21 19 19 18 18 19
30 34 40 49 55 52 44 37 31 38 37 33 33 27 24 23 24 24 23 22 22 22
24 26 32 41 47 50 45 36 36 37 38 33 30 28 25 24 25 27 28 25 25 26
20 22 28 35 41 44 44 35 33 38 40 32 27 29 27 23 27 29 33 28 28 24
14 20 25 30 36 40 44 36 30 33 40 31 26 28 28 35 36 34 33 27 27 22
12 17 19 25 29 32 33 32 31 27 27 25 27 29 32 31 26 27 33 26 24 20
Wind_Direction
232 233 238 239 238 241 243 243 245 251 255 243 244 262 267 279 272 274 274 271 268 269
233 231 232 232 239 244 245 238 241 248 238 239 249 259 263 268 262 268 267 270 271 270
233 233 232 242 239 241 246 242 243 233 237 248 249 250 255 251 251 260 271 270 269 273
233 233 226 228 236 248 250 248 247 246 247 253 249 253 256 256 256 264 265 269 270 271
233 232 214 238 243 233 235 253 264 261 259 255 250 251 256 257 260 260 262 268 273 279
233 231 218 220 217 235 229 283 270 264 261 253 249 248 247 250 254 262 268 276 282 283
235 231 223 213 217 207 229 266 247 247 254 250 246 243 242 245 254 261 269 276 280 275
240 234 226 218 219 222 240 251 245 236 243 248 244 242 240 244 253 261 271 276 282 278
249 241 232 226 223 228 228 242 243 240 239 244 245 244 244 246 254 261 266 275 277 278
255 247 239 234 228 226 230 236 257 236 236 238 246 249 250 248 254 261 265 272 278 281
257 252 243 236 240 233 227 235 257 232 232 241 245 250 254 254 263 268 270 273 278 279
256 249 243 241 239 233 228 241 248 235 235 242 243 245 252 257 267 273 280 273 278 275
250 247 247 244 239 235 235 230 247 244 240 245 246 246 254 260 259 273 273 276 278 272
212 233 238 240 241 234 236 238 254 251 246 238 246 255 259 265 280 266 271 274 267 272
Height
1541 1544 1547 1550 1552 1554 1555 1558 1560 1561 1562 1562 1563 1563 1563 1562 1561 1561 1561 1561 1562 1561
1536 1538 1542 1545 1549 1551 1553 1553 1554 1557 1557 1559 1560 1560 1560 1560 1561 1560 1560 1559 1559 1558
1530 1534 1541 1547 1545 1547 1550 1552 1553 1552 1556 1556 1556 1556 1556 1555 1555 1555 1556 1556 1556 1556
1524 1530 1536 1540 1542 1541 1547 1549 1552 1553 1552 1553 1552 1553 1554 1553 1553 1553 1553 1553 1553 1553
1518 1522 1526 1537 1545 1540 1540 1545 1549 1550 1549 1550 1549 1550 1551 1551 1551 1550 1550 1548 1547 1549
1508 1514 1520 1522 1528 1542 1540 1540 1545 1545 1545 1546 1546 1545 1546 1546 1546 1546 1546 1544 1544 1544
1501 1505 1510 1515 1519 1521 1523 1530 1534 1532 1536 1538 1540 1540 1540 1541 1540 1541 1541 1539 1539 1540
1491 1498 1501 1503 1503 1510 1516 1520 1525 1524 1528 1532 1533 1533 1535 1535 1536 1536 1536 1535 1535 1535
1482 1488 1492 1494 1493 1498 1505 1505 1510 1516 1520 1524 1525 1527 1530 1530 1531 1531 1530 1529 1529 1528
1477 1480 1484 1485 1488 1492 1500 1502 1502 1506 1511 1514 1518 1522 1523 1525 1525 1526 1525 1524 1525 1524
1471 1475 1478 1480 1481 1485 1492 1496 1496 1499 1504 1507 1511 1515 1518 1520 1522 1522 1521 1518 1518 1517
1466 1467 1470 1473 1474 1481 1486 1492 1492 1494 1498 1501 1506 1507 1511 1511 1514 1514 1515 1512 1512 1510
1462 1465 1467 1470 1473 1477 1481 1487 1488 1488 1490 1497 1499 1501 1501 1502 1505 1506 1505 1506 1506 1504
1451 1460 1463 1467 1471 1472 1476 1480 1480 1484 1489 1491 1492 1493 1495 1496 1499 1497 1498 1497 1500 1498